Hays, KS

8:01 AM CST on December 08, 2019 (GMT -0600)
Hays Regional

Weather History for KHYS - October, 2019

Change the Weather History Date:

Saturday, October 19, 2019

  Actual Average Record
Temperature  
Mean Temperature 56 °F -  
Max Temperature 69 °F 65 °F 93 °F (2003)
Min Temperature 45 °F 40 °F 24 °F (2006)
Degree Days  
Heating Degree Days 8    
Growing Degree Days 6 (Base 50)    
Moisture  
Dew Point 41 °F    
Average Humidity 65    
Maximum Humidity 92    
Minimum Humidity 30    
Precipitation  
Precipitation 0.01 in - - ()
Sea Level Pressure  
Sea Level Pressure 29.82 in    
Wind  
Wind Speed 10 mph (NW)    
Max Wind Speed 21 mph    
Max Gust Speed -    
Visibility 10 miles    
Events      
Averages and records for this station are not official NWS values.
T = Trace of Precipitation, MM = Missing Value Source: NWS Daily Summary

Daily Weather History Graph

Daily Weather History Graph

Search for Another Location

Airport or City:

Astronomy

Oct. 19, 2019 Rise Set
Actual Time 7:50 AM CDT 6:53 PM CDT
Civil Twilight 7:23 AM CDT 7:20 PM CDT
Nautical Twilight 6:52 AM CDT 7:51 PM CDT
Astronomical Twilight 6:21 AM CDT 8:21 PM CDT
Moon 11:06 PM CDT (10/19) 1:21 PM CDT (10/19)
Length of Visible Light 11h 56m
Length of Day
11h 02m
Waning Gibbous, 69% of the Moon is Illuminated
Oct 19
Waning Gibbous
Oct 21
Last Quarter
Oct 27
New
Nov 4
First Quarter
Nov 12
Full

Hourly Weather History & Observations

Time (CDT) Temp. Windchill Dew Point Humidity Pressure Visibility Wind Dir Wind Speed Gust Speed Precip Events Conditions
12:56 AM 53.1 °F - 48.9 °F 86% 29.68 in 10.0 mi North 20.7 mph - 0.01 in   Clear
1:56 AM 51.1 °F - 48.9 °F 92% 29.73 in 10.0 mi North 3.5 mph - N/A   Scattered Clouds
2:56 AM 51.1 °F - 48.9 °F 92% 29.76 in 10.0 mi NNW 11.5 mph - N/A   Clear
3:56 AM 48.9 °F - 46.0 °F 90% 29.78 in 10.0 mi NNW 9.2 mph - N/A   Clear
4:56 AM 48.9 °F - 44.1 °F 83% 29.78 in 10.0 mi NNW 10.4 mph - N/A   Clear
5:56 AM 45.0 °F 43.5 °F 42.1 °F 90% 29.82 in 10.0 mi WSW 3.5 mph - N/A   Clear
6:56 AM 45.0 °F 40.1 °F 41.0 °F 86% 29.84 in 10.0 mi NW 9.2 mph - N/A   Clear
8:56 AM 45.0 °F 41.2 °F 42.1 °F 90% 29.89 in 10.0 mi NW 6.9 mph - N/A   Clear
9:56 AM 50.0 °F - 42.1 °F 74% 29.90 in 10.0 mi NW 8.1 mph - N/A   Clear
10:56 AM 55.0 °F - 44.1 °F 67% 29.90 in 10.0 mi NNW 6.9 mph - N/A   Clear
11:56 AM 60.1 °F - 41.0 °F 49% 29.90 in 10.0 mi NW 8.1 mph - N/A   Clear
12:56 PM 63.0 °F - 37.9 °F 40% 29.89 in 10.0 mi NNW 6.9 mph - N/A   Clear
1:56 PM 64.9 °F - 39.9 °F 40% 29.86 in 10.0 mi NW 6.9 mph - N/A   Clear
2:56 PM 66.9 °F - 39.0 °F 36% 29.82 in 10.0 mi NW 8.1 mph - 0.00 in   Clear
3:56 PM 68.0 °F - 37.9 °F 33% 29.80 in 10.0 mi Calm Calm - N/A   Clear
4:56 PM 68.0 °F - 35.1 °F 30% 29.79 in 10.0 mi WSW 3.5 mph - N/A   Clear
5:56 PM 66.9 °F - 37.0 °F 33% 29.79 in 10.0 mi South 3.5 mph - N/A   Clear
6:56 PM 62.1 °F - 39.0 °F 43% 29.80 in 10.0 mi SSE 6.9 mph - N/A   Clear
7:56 PM 55.0 °F - 39.0 °F 55% 29.82 in 10.0 mi SE 4.6 mph - N/A   Clear
8:56 PM 52.0 °F - 39.9 °F 63% 29.81 in 10.0 mi SSE 6.9 mph - N/A   Clear
9:56 PM 50.0 °F - 39.9 °F 68% 29.81 in 10.0 mi SSE 6.9 mph - N/A   Clear
10:56 PM 46.0 °F 41.0 °F 37.9 °F 73% 29.80 in 10.0 mi SSE 10.4 mph - N/A   Clear
11:56 PM 46.9 °F - 37.9 °F 71% 29.78 in 10.0 mi SE 10.4 mph - N/A   Clear